"Period start","avg(HW err(1)/warn(2) (#))","avg(Visibility (m))","avg(Weather code (#))","avg(Precip intensity (mm/h))","min(HW err(1)/warn(2) (#))","max(HW err(1)/warn(2) (#))","std(HW err(1)/warn(2) (#))","med(HW err(1)/warn(2) (#))","min(Visibility (m))","max(Visibility (m))","std(Visibility (m))","med(Visibility (m))","min(Weather code (#))","max(Weather code (#))","std(Weather code (#))","med(Weather code (#))","min(Precip intensity (mm/h))","max(Precip intensity (mm/h))","std(Precip intensity (mm/h))","med(Precip intensity (mm/h))"
2016-09-25 00:00:00,2,5382,73,0.73,2,2,0,2,3160,11505,2601,4158,71,77,3,71,0.05,1.30,0.42,0.73
2016-09-25 00:10:00,2,4035,71,1.23,2,2,0,2,3222,4936,423,4018,71,71,0,71,0.65,1.70,0.36,1.23
2016-09-25 00:20:00,2,4207,71,0.53,2,2,0,2,3723,4651,298,4213,71,71,0,71,0.35,0.75,0.13,0.53
2016-09-25 00:30:00,2,3498,71,0.66,2,2,0,2,3243,3893,225,3394,71,71,0,71,0.40,1.05,0.19,0.62
2016-09-25 00:40:00,2,4815,71,0.44,2,2,0,2,3998,5907,622,4999,71,71,0,71,0.20,0.65,0.13,0.40
2016-09-25 00:50:00,2,6111,71,0.44,2,2,0,2,5362,7351,516,6029,71,71,0,71,0.15,0.75,0.18,0.43
2016-09-25 01:00:00,2,5062,71,0.90,2,2,0,2,2850,7261,1379,4872,71,71,0,71,0.25,2.15,0.62,0.68
2016-09-25 01:10:00,2,4134,71,1.53,2,2,0,2,3032,5988,895,4248,71,71,0,71,0.50,2.40,0.57,1.58
2016-09-25 01:20:00,2,14830,71,0.38,2,2,0,2,5911,40772,11446,8943,71,71,0,71,0.00,1.15,0.36,0.35
2016-09-25 01:30:00,2,49533,7,0.00,2,2,0,2,47453,50000,938,50000,0,71,21,0,0.00,0.00,0.00,0.00
2016-09-25 01:40:00,2,49947,0,0.00,2,2,0,2,49558,50000,132,50000,0,0,0,0,0.00,0.00,0.00,0.00
2016-09-25 01:50:00,2,49836,0,0.00,2,2,0,2,48361,50000,492,50000,0,0,0,0,0.00,0.00,0.00,0.00
2016-09-25 02:00:00,2,49688,0,0.00,2,2,0,2,48587,50000,527,50000,0,0,0,0,0.00,0.00,0.00,0.00
2016-09-25 02:10:00,2,49773,0,0.00,2,2,0,2,48719,50000,459,50000,0,0,0,0,0.00,0.00,0.00,0.00
2016-09-25 02:20:00,2,48989,0,0.00,2,2,0,2,41090,50000,2657,50000,0,0,0,0,0.00,0.00,0.00,0.00
2016-09-25 02:30:00,2,49995,0,0.00,2,2,0,2,49948,50000,16,50000,0,0,0,0,0.00,0.00,0.00,0.00
2016-09-25 02:40:00,2,48433,0,0.00,2,2,0,2,41525,50000,2705,50000,0,0,0,0,0.00,0.00,0.00,0.00
2016-09-25 02:50:00,2,50000,0,0.00,2,2,0,2,50000,50000,0,50000,0,0,0,0,0.00,0.00,0.00,0.00
2016-09-25 03:00:00,2,48806,0,0.00,2,2,0,2,41271,50000,2569,50000,0,0,0,0,0.00,0.00,0.00,0.00
2016-09-25 03:10:00,2,49806,0,0.00,2,2,0,2,48060,50000,582,50000,0,0,0,0,0.00,0.00,0.00,0.00
2016-09-25 03:20:00,2,40556,46,0.01,2,2,0,2,23449,50000,8418,41402,0,77,27,40,0.00,0.10,0.03,0.00
2016-09-25 03:30:00,2,24688,64,0.06,2,2,0,2,9577,49530,11414,21818,0,71,21,71,0.00,0.30,0.09,0.00
2016-09-25 03:40:00,2,14507,71,0.30,2,2,0,2,10263,26806,4939,12477,71,71,0,71,0.00,0.75,0.21,0.25
2016-09-25 03:50:00,2,13733,71,0.33,2,2,0,2,4630,25970,6496,12223,71,71,0,71,0.05,0.65,0.17,0.30
2016-09-25 04:00:00,2,16392,71,0.28,2,2,0,2,5667,33009,8799,13264,71,71,0,71,0.00,1.30,0.41,0.10
2016-09-25 04:10:00,2,35322,43,0.03,2,2,0,2,10519,50000,12108,38554,0,71,35,71,0.00,0.20,0.06,0.00
2016-09-25 04:20:00,2,49608,0,0.00,2,2,0,2,47934,50000,785,50000,0,0,0,0,0.00,0.00,0.00,0.00
2016-09-25 04:30:00,2,49858,0,0.00,2,2,0,2,48578,50000,427,50000,0,0,0,0,0.00,0.00,0.00,0.00
2016-09-25 04:40:00,2,26255,50,0.06,2,2,0,2,15254,50000,8664,24901,0,71,33,71,0.00,0.40,0.12,0.00
2016-09-25 04:50:00,2,22600,71,0.17,2,2,0,2,8103,40356,11916,19954,71,71,0,71,0.00,0.80,0.24,0.08
2016-09-25 05:00:00,2,17750,71,0.27,2,2,0,2,4764,39306,10118,16945,71,71,0,71,0.00,0.95,0.34,0.08
2016-09-25 05:10:00,2,6145,71,0.97,2,2,0,2,3267,9373,2140,5951,71,71,0,71,0.30,1.60,0.40,1.00
2016-09-25 05:20:00,2,7393,71,0.86,2,2,0,2,4411,11436,2243,7244,71,71,0,71,0.20,2.00,0.51,0.68
2016-09-25 05:30:00,2,11399,71,0.22,2,2,0,2,5797,15137,3098,12803,71,71,0,71,0.05,0.70,0.26,0.05
2016-09-25 05:40:00,2,13017,71,0.14,2,2,0,2,7719,22694,4747,11594,71,71,0,71,0.00,0.50,0.15,0.10
2016-09-25 05:50:00,2,14217,72,0.02,2,2,0,2,7397,24130,4925,12954,71,77,2,71,0.00,0.05,0.02,0.00
2016-09-25 06:00:00,2,14956,75,0.02,2,2,0,2,7981,24054,4394,13768,71,77,3,77,0.00,0.15,0.05,0.00
2016-09-25 06:10:00,2,27847,73,0.04,2,2,0,2,16571,47480,10945,21932,71,77,3,71,0.00,0.40,0.12,0.00
2016-09-25 06:20:00,2,35787,76,0.02,2,2,0,2,21423,50000,11542,32199,71,77,2,77,0.00,0.05,0.02,0.00
2016-09-25 06:30:00,2,20095,74,0.14,2,2,0,2,13443,30934,4795,19116,71,77,3,74,0.05,0.30,0.09,0.12
2016-09-25 06:40:00,2,21458,71,0.20,2,2,0,2,8006,32005,7461,22094,71,71,0,71,0.00,0.75,0.26,0.08
2016-09-25 06:50:00,2,28966,71,0.14,2,2,0,2,15890,47648,12217,24128,71,71,0,71,0.00,0.35,0.11,0.12
2016-09-25 07:00:00,2,34963,71,0.06,2,2,0,2,15254,50000,12505,35091,71,71,0,71,0.00,0.30,0.10,0.00
2016-09-25 07:10:00,2,50000,44,0.01,2,2,0,2,50000,50000,0,50000,0,77,36,71,0.00,0.05,0.02,0.00
2016-09-25 07:20:00,2,50000,0,0.00,2,2,0,2,50000,50000,0,50000,0,0,0,0,0.00,0.00,0.00,0.00
2016-09-25 07:30:00,2,50000,0,0.00,2,2,0,2,50000,50000,0,50000,0,0,0,0,0.00,0.00,0.00,0.00
2016-09-25 07:40:00,2,37032,22,0.05,2,2,0,2,17100,50000,14052,43950,0,71,29,0,0.00,0.25,0.09,0.00
2016-09-25 07:50:00,2,26551,71,0.07,2,2,0,2,14563,34935,6404,26826,71,71,0,71,0.00,0.45,0.13,0.03
2016-09-25 08:00:00,2,22492,71,0.06,2,2,0,2,9308,48650,11569,17145,71,71,0,71,0.00,0.25,0.08,0.03
2016-09-25 08:10:00,2,50000,14,0.00,2,2,0,2,50000,50000,0,50000,0,71,28,0,0.00,0.00,0.00,0.00
2016-09-25 08:20:00,2,41956,43,0.01,2,2,0,2,23076,50000,9288,46472,0,71,35,71,0.00,0.05,0.02,0.00
2016-09-25 08:30:00,2,47397,59,0.01,2,2,0,2,32627,50000,5400,50000,0,77,30,71,0.00,0.10,0.03,0.00
2016-09-25 08:40:00,2,48528,0,0.00,2,2,0,2,38571,50000,3461,50000,0,0,0,0,0.00,0.00,0.00,0.00
2016-09-25 08:50:00,2,45981,0,0.00,2,2,0,2,33915,50000,6199,50000,0,0,0,0,0.00,0.00,0.00,0.00
2016-09-25 09:00:00,2,39837,21,0.01,2,2,0,2,20221,50000,10286,43132,0,71,33,0,0.00,0.10,0.03,0.00
2016-09-25 09:10:00,2,15830,4,0.00,2,2,0,2,8179,22718,4259,15114,0,40,12,0,0.00,0.00,0.00,0.00
2016-09-25 09:20:00,2,35673,36,0.03,2,2,0,2,5963,50000,17481,47293,0,71,32,40,0.00,0.15,0.05,0.00
2016-09-25 09:30:00,2,49842,0,0.00,2,2,0,2,48417,50000,475,50000,0,0,0,0,0.00,0.00,0.00,0.00
2016-09-25 09:40:00,2,50000,0,0.00,2,2,0,2,50000,50000,0,50000,0,0,0,0,0.00,0.00,0.00,0.00
2016-09-25 09:50:00,2,48918,0,0.00,2,2,0,2,41547,50000,2556,50000,0,0,0,0,0.00,0.00,0.00,0.00
2016-09-25 10:00:00,2,50000,0,0.00,2,2,0,2,50000,50000,0,50000,0,0,0,0,0.00,0.00,0.00,0.00
2016-09-25 10:10:00,2,49844,0,0.00,2,2,0,2,48444,50000,467,50000,0,0,0,0,0.00,0.00,0.00,0.00
2016-09-25 10:20:00,2,50000,0,0.00,2,2,0,2,50000,50000,0,50000,0,0,0,0,0.00,0.00,0.00,0.00
2016-09-25 10:30:00,2,37405,0,0.00,2,2,0,2,16966,50000,14441,47202,0,0,0,0,0.00,0.00,0.00,0.00
2016-09-25 10:40:00,2,45661,0,0.00,2,2,0,2,29759,50000,6893,49684,0,0,0,0,0.00,0.00,0.00,0.00
2016-09-25 10:50:00,2,50000,0,0.00,2,2,0,2,50000,50000,0,50000,0,0,0,0,0.00,0.00,0.00,0.00
2016-09-25 11:00:00,2,50000,0,0.00,2,2,0,2,50000,50000,0,50000,0,0,0,0,0.00,0.00,0.00,0.00
2016-09-25 11:10:00,2,50000,0,0.00,2,2,0,2,50000,50000,0,50000,0,0,0,0,0.00,0.00,0.00,0.00
2016-09-25 11:20:00,2,50000,0,0.00,2,2,0,2,50000,50000,0,50000,0,0,0,0,0.00,0.00,0.00,0.00
2016-09-25 11:30:00,2,50000,0,0.00,2,2,0,2,50000,50000,0,50000,0,0,0,0,0.00,0.00,0.00,0.00
2016-09-25 11:40:00,2,50000,0,0.00,2,2,0,2,50000,50000,0,50000,0,0,0,0,0.00,0.00,0.00,0.00
2016-09-25 11:50:00,2,50000,0,0.00,2,2,0,2,50000,50000,0,50000,0,0,0,0,0.00,0.00,0.00,0.00
2016-09-25 12:00:00,2,50000,0,0.00,2,2,0,2,50000,50000,0,50000,0,0,0,0,0.00,0.00,0.00,0.00
2016-09-25 12:10:00,2,50000,0,0.00,2,2,0,2,50000,50000,0,50000,0,0,0,0,0.00,0.00,0.00,0.00
2016-09-25 12:20:00,2,50000,0,0.00,2,2,0,2,50000,50000,0,50000,0,0,0,0,0.00,0.00,0.00,0.00
2016-09-25 12:30:00,2,50000,0,0.00,2,2,0,2,50000,50000,0,50000,0,0,0,0,0.00,0.00,0.00,0.00
2016-09-25 12:40:00,2,50000,0,0.00,2,2,0,2,50000,50000,0,50000,0,0,0,0,0.00,0.00,0.00,0.00
2016-09-25 12:50:00,2,50000,0,0.00,2,2,0,2,50000,50000,0,50000,0,0,0,0,0.00,0.00,0.00,0.00
2016-09-25 13:00:00,2,47661,0,0.00,2,2,0,2,39278,50000,3661,50000,0,0,0,0,0.00,0.00,0.00,0.00
2016-09-25 13:10:00,2,34746,60,0.01,2,2,0,2,23617,50000,9645,32051,40,77,16,71,0.00,0.05,0.02,0.00
2016-09-25 13:20:00,2,47184,15,0.00,2,2,0,2,39446,50000,4124,49934,0,77,31,0,0.00,0.00,0.00,0.00
2016-09-25 13:30:00,2,40078,0,0.00,2,2,0,2,30173,49666,5571,40323,0,0,0,0,0.00,0.00,0.00,0.00
2016-09-25 13:40:00,2,36204,60,0.00,2,2,0,2,16638,50000,9255,39188,0,77,30,74,0.00,0.00,0.00,0.00
2016-09-25 13:50:00,2,50000,14,0.00,2,2,0,2,50000,50000,0,50000,0,71,28,0,0.00,0.00,0.00,0.00
2016-09-25 14:00:00,2,50000,0,0.00,2,2,0,2,50000,50000,0,50000,0,0,0,0,0.00,0.00,0.00,0.00
2016-09-25 14:10:00,2,50000,0,0.00,2,2,0,2,50000,50000,0,50000,0,0,0,0,0.00,0.00,0.00,0.00
2016-09-25 14:20:00,2,50000,0,0.00,2,2,0,2,50000,50000,0,50000,0,0,0,0,0.00,0.00,0.00,0.00
2016-09-25 14:30:00,2,50000,0,0.00,2,2,0,2,50000,50000,0,50000,0,0,0,0,0.00,0.00,0.00,0.00
2016-09-25 14:40:00,2,50000,0,0.00,2,2,0,2,50000,50000,0,50000,0,0,0,0,0.00,0.00,0.00,0.00
2016-09-25 14:50:00,2,50000,0,0.00,2,2,0,2,50000,50000,0,50000,0,0,0,0,0.00,0.00,0.00,0.00
2016-09-25 15:00:00,2,50000,0,0.00,2,2,0,2,50000,50000,0,50000,0,0,0,0,0.00,0.00,0.00,0.00
2016-09-25 15:10:00,2,50000,0,0.00,2,2,0,2,50000,50000,0,50000,0,0,0,0,0.00,0.00,0.00,0.00
2016-09-25 15:20:00,2,50000,0,0.00,2,2,0,2,50000,50000,0,50000,0,0,0,0,0.00,0.00,0.00,0.00
2016-09-25 15:30:00,2,50000,0,0.00,2,2,0,2,50000,50000,0,50000,0,0,0,0,0.00,0.00,0.00,0.00
2016-09-25 15:40:00,2,50000,0,0.00,2,2,0,2,50000,50000,0,50000,0,0,0,0,0.00,0.00,0.00,0.00
2016-09-25 15:50:00,2,50000,0,0.00,2,2,0,2,50000,50000,0,50000,0,0,0,0,0.00,0.00,0.00,0.00
2016-09-25 16:00:00,2,50000,0,0.00,2,2,0,2,50000,50000,0,50000,0,0,0,0,0.00,0.00,0.00,0.00
2016-09-25 16:10:00,2,50000,0,0.00,2,2,0,2,50000,50000,0,50000,0,0,0,0,0.00,0.00,0.00,0.00
2016-09-25 16:20:00,2,50000,0,0.00,2,2,0,2,50000,50000,0,50000,0,0,0,0,0.00,0.00,0.00,0.00
2016-09-25 16:30:00,2,50000,0,0.00,2,2,0,2,50000,50000,0,50000,0,0,0,0,0.00,0.00,0.00,0.00
2016-09-25 16:40:00,2,50000,0,0.00,2,2,0,2,50000,50000,0,50000,0,0,0,0,0.00,0.00,0.00,0.00
2016-09-25 16:50:00,2,50000,0,0.00,2,2,0,2,50000,50000,0,50000,0,0,0,0,0.00,0.00,0.00,0.00
2016-09-25 17:00:00,2,50000,0,0.00,2,2,0,2,50000,50000,0,50000,0,0,0,0,0.00,0.00,0.00,0.00
2016-09-25 17:10:00,2,50000,0,0.00,2,2,0,2,50000,50000,0,50000,0,0,0,0,0.00,0.00,0.00,0.00
2016-09-25 17:20:00,2,50000,0,0.00,2,2,0,2,50000,50000,0,50000,0,0,0,0,0.00,0.00,0.00,0.00
2016-09-25 17:30:00,2,50000,0,0.00,2,2,0,2,50000,50000,0,50000,0,0,0,0,0.00,0.00,0.00,0.00
2016-09-25 17:40:00,2,50000,0,0.00,2,2,0,2,50000,50000,0,50000,0,0,0,0,0.00,0.00,0.00,0.00
2016-09-25 17:50:00,2,50000,0,0.00,2,2,0,2,50000,50000,0,50000,0,0,0,0,0.00,0.00,0.00,0.00
2016-09-25 18:00:00,2,50000,0,0.00,2,2,0,2,50000,50000,0,50000,0,0,0,0,0.00,0.00,0.00,0.00
2016-09-25 18:10:00,2,50000,0,0.00,2,2,0,2,50000,50000,0,50000,0,0,0,0,0.00,0.00,0.00,0.00
2016-09-25 18:20:00,2,50000,0,0.00,2,2,0,2,50000,50000,0,50000,0,0,0,0,0.00,0.00,0.00,0.00
2016-09-25 18:30:00,2,50000,0,0.00,2,2,0,2,50000,50000,0,50000,0,0,0,0,0.00,0.00,0.00,0.00
2016-09-25 18:40:00,2,50000,0,0.00,2,2,0,2,50000,50000,0,50000,0,0,0,0,0.00,0.00,0.00,0.00
2016-09-25 18:50:00,2,50000,0,0.00,2,2,0,2,50000,50000,0,50000,0,0,0,0,0.00,0.00,0.00,0.00
2016-09-25 19:00:00,2,50000,0,0.00,2,2,0,2,50000,50000,0,50000,0,0,0,0,0.00,0.00,0.00,0.00
2016-09-25 19:10:00,2,50000,0,0.00,2,2,0,2,50000,50000,0,50000,0,0,0,0,0.00,0.00,0.00,0.00
2016-09-25 19:20:00,2,50000,0,0.00,2,2,0,2,50000,50000,0,50000,0,0,0,0,0.00,0.00,0.00,0.00
2016-09-25 19:30:00,2,50000,0,0.00,2,2,0,2,50000,50000,0,50000,0,0,0,0,0.00,0.00,0.00,0.00
2016-09-25 19:40:00,2,50000,0,0.00,2,2,0,2,50000,50000,0,50000,0,0,0,0,0.00,0.00,0.00,0.00
2016-09-25 19:50:00,2,50000,0,0.00,2,2,0,2,50000,50000,0,50000,0,0,0,0,0.00,0.00,0.00,0.00
2016-09-25 20:00:00,2,50000,0,0.00,2,2,0,2,50000,50000,0,50000,0,0,0,0,0.00,0.00,0.00,0.00
2016-09-25 20:10:00,2,50000,0,0.00,2,2,0,2,50000,50000,0,50000,0,0,0,0,0.00,0.00,0.00,0.00
2016-09-25 20:20:00,2,50000,0,0.00,2,2,0,2,50000,50000,0,50000,0,0,0,0,0.00,0.00,0.00,0.00
2016-09-25 20:30:00,2,50000,0,0.00,2,2,0,2,50000,50000,0,50000,0,0,0,0,0.00,0.00,0.00,0.00
2016-09-25 20:40:00,2,50000,0,0.00,2,2,0,2,50000,50000,0,50000,0,0,0,0,0.00,0.00,0.00,0.00
2016-09-25 20:50:00,2,50000,0,0.00,2,2,0,2,50000,50000,0,50000,0,0,0,0,0.00,0.00,0.00,0.00
2016-09-25 21:00:00,2,50000,0,0.00,2,2,0,2,50000,50000,0,50000,0,0,0,0,0.00,0.00,0.00,0.00
2016-09-25 21:10:00,2,50000,0,0.00,2,2,0,2,50000,50000,0,50000,0,0,0,0,0.00,0.00,0.00,0.00
2016-09-25 21:20:00,2,50000,0,0.00,2,2,0,2,50000,50000,0,50000,0,0,0,0,0.00,0.00,0.00,0.00
2016-09-25 21:30:00,2,50000,0,0.00,2,2,0,2,50000,50000,0,50000,0,0,0,0,0.00,0.00,0.00,0.00
2016-09-25 21:40:00,2,50000,0,0.00,2,2,0,2,50000,50000,0,50000,0,0,0,0,0.00,0.00,0.00,0.00
2016-09-25 21:50:00,2,50000,0,0.00,2,2,0,2,50000,50000,0,50000,0,0,0,0,0.00,0.00,0.00,0.00
2016-09-25 22:00:00,2,50000,0,0.00,2,2,0,2,50000,50000,0,50000,0,0,0,0,0.00,0.00,0.00,0.00
2016-09-25 22:10:00,2,50000,0,0.00,2,2,0,2,50000,50000,0,50000,0,0,0,0,0.00,0.00,0.00,0.00
2016-09-25 22:20:00,2,50000,0,0.00,2,2,0,2,50000,50000,0,50000,0,0,0,0,0.00,0.00,0.00,0.00
2016-09-25 22:30:00,2,50000,0,0.00,2,2,0,2,50000,50000,0,50000,0,0,0,0,0.00,0.00,0.00,0.00
2016-09-25 22:40:00,2,49929,0,0.00,2,2,0,2,49288,50000,214,50000,0,0,0,0,0.00,0.00,0.00,0.00
2016-09-25 22:50:00,2,49896,0,0.00,2,2,0,2,48956,50000,313,50000,0,0,0,0,0.00,0.00,0.00,0.00
2016-09-25 23:00:00,2,50000,0,0.00,2,2,0,2,50000,50000,0,50000,0,0,0,0,0.00,0.00,0.00,0.00
2016-09-25 23:10:00,2,49953,0,0.00,2,2,0,2,49528,50000,142,50000,0,0,0,0,0.00,0.00,0.00,0.00
2016-09-25 23:20:00,2,49701,0,0.00,2,2,0,2,47358,50000,788,50000,0,0,0,0,0.00,0.00,0.00,0.00
2016-09-25 23:30:00,2,47633,0,0.00,2,2,0,2,38711,50000,3319,49014,0,0,0,0,0.00,0.00,0.00,0.00
2016-09-25 23:40:00,2,49015,0,0.00,2,2,0,2,41479,50000,2530,50000,0,0,0,0,0.00,0.00,0.00,0.00
2016-09-25 23:50:00,2,47457,0,0.00,2,2,0,2,43747,50000,2275,47638,0,0,0,0,0.00,0.00,0.00,0.00
